<?xml version="1.0" encoding="UTF-8" standalone="no" ?>
<gpx xmlns="http://www.topografix.com/GPX/1/1" xmlns:xsi="http://www.w3.org/2001/XMLSchema-instance" xsi:schemaLocation="http://www.topografix.com/GPX/1/1 http://www.topografix.com/GPX/1/1/gpx.xsd" version="1.1" creator="VisuGPX - https://www.visugpx.com">
  <metadata>
    <name>11543902-reculées baumes les messieurs échelles de Sermu</name>
  </metadata>
  <trk>
    <name><![CDATA[11543902-reculées baumes les messieurs échelles de Sermu]]></name>
    <trkseg>
      <trkpt lat="46.70804" lon="5.64765">
        <ele>310</ele>
        <time>2020-06-26T05:01:33Z</time>
      </trkpt>
      <trkpt lat="46.70778" lon="5.64748">
        <ele>306</ele>
        <time>2020-06-26T05:02:11Z</time>
      </trkpt>
      <trkpt lat="46.70783" lon="5.64703">
        <ele>304</ele>
        <time>2020-06-26T05:02:53Z</time>
      </trkpt>
      <trkpt lat="46.70771" lon="5.64625">
        <ele>312</ele>
        <time>2020-06-26T05:04:06Z</time>
      </trkpt>
      <trkpt lat="46.70712" lon="5.64655">
        <ele>306</ele>
        <time>2020-06-26T05:05:29Z</time>
      </trkpt>
      <trkpt lat="46.7066" lon="5.64666">
        <ele>306</ele>
        <time>2020-06-26T05:06:39Z</time>
      </trkpt>
      <trkpt lat="46.70619" lon="5.64653">
        <ele>311</ele>
        <time>2020-06-26T05:07:35Z</time>
      </trkpt>
      <trkpt lat="46.70594" lon="5.64649">
        <ele>312</ele>
        <time>2020-06-26T05:08:09Z</time>
      </trkpt>
      <trkpt lat="46.70593" lon="5.64619">
        <ele>318</ele>
        <time>2020-06-26T05:08:36Z</time>
      </trkpt>
      <trkpt lat="46.70622" lon="5.64591">
        <ele>324</ele>
        <time>2020-06-26T05:09:23Z</time>
      </trkpt>
      <trkpt lat="46.70662" lon="5.64577">
        <ele>327</ele>
        <time>2020-06-26T05:10:18Z</time>
      </trkpt>
      <trkpt lat="46.70669" lon="5.64566">
        <ele>330</ele>
        <time>2020-06-26T05:10:31Z</time>
      </trkpt>
      <trkpt lat="46.70653" lon="5.64535">
        <ele>336</ele>
        <time>2020-06-26T05:11:07Z</time>
      </trkpt>
      <trkpt lat="46.70633" lon="5.64512">
        <ele>340</ele>
        <time>2020-06-26T05:11:41Z</time>
      </trkpt>
      <trkpt lat="46.70625" lon="5.64491">
        <ele>346</ele>
        <time>2020-06-26T05:12:03Z</time>
      </trkpt>
      <trkpt lat="46.70631" lon="5.64475">
        <ele>352</ele>
        <time>2020-06-26T05:12:20Z</time>
      </trkpt>
      <trkpt lat="46.70615" lon="5.64441">
        <ele>363</ele>
        <time>2020-06-26T05:12:57Z</time>
      </trkpt>
      <trkpt lat="46.70669" lon="5.64418">
        <ele>381</ele>
        <time>2020-06-26T05:14:12Z</time>
      </trkpt>
      <trkpt lat="46.7068" lon="5.64388">
        <ele>412</ele>
        <time>2020-06-26T05:14:44Z</time>
      </trkpt>
      <trkpt lat="46.70683" lon="5.64379">
        <ele>422</ele>
        <time>2020-06-26T05:14:53Z</time>
      </trkpt>
      <trkpt lat="46.7069" lon="5.64385">
        <ele>417</ele>
        <time>2020-06-26T05:15:04Z</time>
      </trkpt>
      <trkpt lat="46.70729" lon="5.64397">
        <ele>411</ele>
        <time>2020-06-26T05:15:57Z</time>
      </trkpt>
      <trkpt lat="46.70754" lon="5.64379">
        <ele>430</ele>
        <time>2020-06-26T05:16:34Z</time>
      </trkpt>
      <trkpt lat="46.70745" lon="5.64356">
        <ele>449</ele>
        <time>2020-06-26T05:16:58Z</time>
      </trkpt>
      <trkpt lat="46.7066" lon="5.64337">
        <ele>463</ele>
        <time>2020-06-26T05:18:53Z</time>
      </trkpt>
      <trkpt lat="46.70662" lon="5.64322">
        <ele>469</ele>
        <time>2020-06-26T05:19:07Z</time>
      </trkpt>
      <trkpt lat="46.70683" lon="5.64306">
        <ele>473</ele>
        <time>2020-06-26T05:19:39Z</time>
      </trkpt>
      <trkpt lat="46.70685" lon="5.64296">
        <ele>476</ele>
        <time>2020-06-26T05:19:48Z</time>
      </trkpt>
      <trkpt lat="46.70723" lon="5.64289">
        <ele>479</ele>
        <time>2020-06-26T05:20:39Z</time>
      </trkpt>
      <trkpt lat="46.70762" lon="5.643">
        <ele>478</ele>
        <time>2020-06-26T05:21:32Z</time>
      </trkpt>
      <trkpt lat="46.70776" lon="5.64321">
        <ele>474</ele>
        <time>2020-06-26T05:21:59Z</time>
      </trkpt>
      <trkpt lat="46.70741" lon="5.64297">
        <ele>477</ele>
        <time>2020-06-26T05:22:51Z</time>
      </trkpt>
      <trkpt lat="46.70683" lon="5.64288">
        <ele>477</ele>
        <time>2020-06-26T05:24:08Z</time>
      </trkpt>
      <trkpt lat="46.70653" lon="5.64303">
        <ele>473</ele>
        <time>2020-06-26T05:24:51Z</time>
      </trkpt>
      <trkpt lat="46.70616" lon="5.64303">
        <ele>471</ele>
        <time>2020-06-26T05:25:40Z</time>
      </trkpt>
      <trkpt lat="46.70555" lon="5.6429">
        <ele>473</ele>
        <time>2020-06-26T05:27:02Z</time>
      </trkpt>
      <trkpt lat="46.70509" lon="5.64279">
        <ele>479</ele>
        <time>2020-06-26T05:28:05Z</time>
      </trkpt>
      <trkpt lat="46.70469" lon="5.64232">
        <ele>497</ele>
        <time>2020-06-26T05:29:13Z</time>
      </trkpt>
      <trkpt lat="46.70406" lon="5.64226">
        <ele>490</ele>
        <time>2020-06-26T05:30:37Z</time>
      </trkpt>
      <trkpt lat="46.70353" lon="5.64196">
        <ele>489</ele>
        <time>2020-06-26T05:31:53Z</time>
      </trkpt>
      <trkpt lat="46.70327" lon="5.64205">
        <ele>480</ele>
        <time>2020-06-26T05:32:29Z</time>
      </trkpt>
      <trkpt lat="46.70298" lon="5.64203">
        <ele>467</ele>
        <time>2020-06-26T05:33:08Z</time>
      </trkpt>
      <trkpt lat="46.70258" lon="5.64171">
        <ele>482</ele>
        <time>2020-06-26T05:34:09Z</time>
      </trkpt>
      <trkpt lat="46.70228" lon="5.6412">
        <ele>482</ele>
        <time>2020-06-26T05:35:10Z</time>
      </trkpt>
      <trkpt lat="46.7021" lon="5.64104">
        <ele>482</ele>
        <time>2020-06-26T05:35:38Z</time>
      </trkpt>
      <trkpt lat="46.70169" lon="5.64093">
        <ele>482</ele>
        <time>2020-06-26T05:36:34Z</time>
      </trkpt>
      <trkpt lat="46.70112" lon="5.64038">
        <ele>476</ele>
        <time>2020-06-26T05:38:05Z</time>
      </trkpt>
      <trkpt lat="46.70092" lon="5.64018">
        <ele>483</ele>
        <time>2020-06-26T05:38:37Z</time>
      </trkpt>
      <trkpt lat="46.7008" lon="5.63993">
        <ele>494</ele>
        <time>2020-06-26T05:39:05Z</time>
      </trkpt>
      <trkpt lat="46.70011" lon="5.6397">
        <ele>487</ele>
        <time>2020-06-26T05:40:40Z</time>
      </trkpt>
      <trkpt lat="46.6998" lon="5.63944">
        <ele>496</ele>
        <time>2020-06-26T05:41:28Z</time>
      </trkpt>
      <trkpt lat="46.6996" lon="5.63898">
        <ele>503</ele>
        <time>2020-06-26T05:42:17Z</time>
      </trkpt>
      <trkpt lat="46.6993" lon="5.63853">
        <ele>503</ele>
        <time>2020-06-26T05:43:15Z</time>
      </trkpt>
      <trkpt lat="46.69935" lon="5.63842">
        <ele>503</ele>
        <time>2020-06-26T05:43:27Z</time>
      </trkpt>
      <trkpt lat="46.69905" lon="5.63797">
        <ele>504</ele>
        <time>2020-06-26T05:44:24Z</time>
      </trkpt>
      <trkpt lat="46.6985" lon="5.63793">
        <ele>503</ele>
        <time>2020-06-26T05:45:38Z</time>
      </trkpt>
      <trkpt lat="46.69734" lon="5.63786">
        <ele>505</ele>
        <time>2020-06-26T05:48:13Z</time>
      </trkpt>
      <trkpt lat="46.69605" lon="5.63795">
        <ele>507</ele>
        <time>2020-06-26T05:51:05Z</time>
      </trkpt>
      <trkpt lat="46.69572" lon="5.63765">
        <ele>507</ele>
        <time>2020-06-26T05:51:57Z</time>
      </trkpt>
      <trkpt lat="46.69572" lon="5.63699">
        <ele>509</ele>
        <time>2020-06-26T05:52:57Z</time>
      </trkpt>
      <trkpt lat="46.69587" lon="5.63636">
        <ele>506</ele>
        <time>2020-06-26T05:53:58Z</time>
      </trkpt>
      <trkpt lat="46.69583" lon="5.63608">
        <ele>502</ele>
        <time>2020-06-26T05:54:25Z</time>
      </trkpt>
      <trkpt lat="46.69518" lon="5.63547">
        <ele>504</ele>
        <time>2020-06-26T05:56:08Z</time>
      </trkpt>
      <trkpt lat="46.69486" lon="5.635">
        <ele>507</ele>
        <time>2020-06-26T05:57:08Z</time>
      </trkpt>
      <trkpt lat="46.69429" lon="5.63486">
        <ele>507</ele>
        <time>2020-06-26T05:58:25Z</time>
      </trkpt>
      <trkpt lat="46.69325" lon="5.63429">
        <ele>511</ele>
        <time>2020-06-26T06:00:54Z</time>
      </trkpt>
      <trkpt lat="46.69254" lon="5.63428">
        <ele>517</ele>
        <time>2020-06-26T06:02:29Z</time>
      </trkpt>
      <trkpt lat="46.69206" lon="5.63482">
        <ele>520</ele>
        <time>2020-06-26T06:03:49Z</time>
      </trkpt>
      <trkpt lat="46.69138" lon="5.63496">
        <ele>522</ele>
        <time>2020-06-26T06:05:21Z</time>
      </trkpt>
      <trkpt lat="46.69067" lon="5.63513">
        <ele>519</ele>
        <time>2020-06-26T06:06:57Z</time>
      </trkpt>
      <trkpt lat="46.69041" lon="5.63546">
        <ele>518</ele>
        <time>2020-06-26T06:07:43Z</time>
      </trkpt>
      <trkpt lat="46.69013" lon="5.63606">
        <ele>514</ele>
        <time>2020-06-26T06:08:50Z</time>
      </trkpt>
      <trkpt lat="46.68956" lon="5.63681">
        <ele>502</ele>
        <time>2020-06-26T06:10:32Z</time>
      </trkpt>
      <trkpt lat="46.68861" lon="5.63719">
        <ele>500</ele>
        <time>2020-06-26T06:12:43Z</time>
      </trkpt>
      <trkpt lat="46.68832" lon="5.63738">
        <ele>504</ele>
        <time>2020-06-26T06:13:26Z</time>
      </trkpt>
      <trkpt lat="46.68807" lon="5.6377">
        <ele>503</ele>
        <time>2020-06-26T06:14:10Z</time>
      </trkpt>
      <trkpt lat="46.68803" lon="5.63868">
        <ele>497</ele>
        <time>2020-06-26T06:15:40Z</time>
      </trkpt>
      <trkpt lat="46.68787" lon="5.63958">
        <ele>498</ele>
        <time>2020-06-26T06:17:05Z</time>
      </trkpt>
      <trkpt lat="46.6879" lon="5.63989">
        <ele>499</ele>
        <time>2020-06-26T06:17:34Z</time>
      </trkpt>
      <trkpt lat="46.68795" lon="5.6398">
        <ele>498</ele>
        <time>2020-06-26T06:17:44Z</time>
      </trkpt>
      <trkpt lat="46.68832" lon="5.63977">
        <ele>495</ele>
        <time>2020-06-26T06:18:34Z</time>
      </trkpt>
      <trkpt lat="46.68831" lon="5.63994">
        <ele>497</ele>
        <time>2020-06-26T06:18:50Z</time>
      </trkpt>
      <trkpt lat="46.68842" lon="5.64022">
        <ele>497</ele>
        <time>2020-06-26T06:19:19Z</time>
      </trkpt>
      <trkpt lat="46.6884" lon="5.64052">
        <ele>501</ele>
        <time>2020-06-26T06:19:47Z</time>
      </trkpt>
      <trkpt lat="46.68848" lon="5.64035">
        <ele>497</ele>
        <time>2020-06-26T06:20:06Z</time>
      </trkpt>
      <trkpt lat="46.68846" lon="5.6405">
        <ele>500</ele>
        <time>2020-06-26T06:20:20Z</time>
      </trkpt>
      <trkpt lat="46.68858" lon="5.64056">
        <ele>500</ele>
        <time>2020-06-26T06:20:36Z</time>
      </trkpt>
      <trkpt lat="46.68867" lon="5.64026">
        <ele>491</ele>
        <time>2020-06-26T06:21:06Z</time>
      </trkpt>
      <trkpt lat="46.68874" lon="5.64022">
        <ele>487</ele>
        <time>2020-06-26T06:21:16Z</time>
      </trkpt>
      <trkpt lat="46.68866" lon="5.63994">
        <ele>482</ele>
        <time>2020-06-26T06:21:44Z</time>
      </trkpt>
      <trkpt lat="46.6886" lon="5.63983">
        <ele>482</ele>
        <time>2020-06-26T06:21:57Z</time>
      </trkpt>
      <trkpt lat="46.6886" lon="5.63938">
        <ele>470</ele>
        <time>2020-06-26T06:22:38Z</time>
      </trkpt>
      <trkpt lat="46.68862" lon="5.63916">
        <ele>463</ele>
        <time>2020-06-26T06:22:59Z</time>
      </trkpt>
      <trkpt lat="46.68857" lon="5.63897">
        <ele>469</ele>
        <time>2020-06-26T06:23:17Z</time>
      </trkpt>
      <trkpt lat="46.68856" lon="5.63876">
        <ele>470</ele>
        <time>2020-06-26T06:23:37Z</time>
      </trkpt>
      <trkpt lat="46.68861" lon="5.63832">
        <ele>468</ele>
        <time>2020-06-26T06:24:17Z</time>
      </trkpt>
      <trkpt lat="46.68879" lon="5.63785">
        <ele>473</ele>
        <time>2020-06-26T06:25:07Z</time>
      </trkpt>
      <trkpt lat="46.68916" lon="5.63762">
        <ele>469</ele>
        <time>2020-06-26T06:26:00Z</time>
      </trkpt>
      <trkpt lat="46.6895" lon="5.6374">
        <ele>478</ele>
        <time>2020-06-26T06:26:50Z</time>
      </trkpt>
      <trkpt lat="46.68956" lon="5.63755">
        <ele>470</ele>
        <time>2020-06-26T06:27:06Z</time>
      </trkpt>
      <trkpt lat="46.6897" lon="5.63787">
        <ele>445</ele>
        <time>2020-06-26T06:27:41Z</time>
      </trkpt>
      <trkpt lat="46.68985" lon="5.63749">
        <ele>471</ele>
        <time>2020-06-26T06:28:21Z</time>
      </trkpt>
      <trkpt lat="46.68983" lon="5.63739">
        <ele>476</ele>
        <time>2020-06-26T06:28:30Z</time>
      </trkpt>
      <trkpt lat="46.69005" lon="5.6375">
        <ele>469</ele>
        <time>2020-06-26T06:29:01Z</time>
      </trkpt>
      <trkpt lat="46.69019" lon="5.63731">
        <ele>478</ele>
        <time>2020-06-26T06:29:27Z</time>
      </trkpt>
      <trkpt lat="46.69022" lon="5.63767">
        <ele>455</ele>
        <time>2020-06-26T06:30:00Z</time>
      </trkpt>
      <trkpt lat="46.69013" lon="5.63788">
        <ele>440</ele>
        <time>2020-06-26T06:30:23Z</time>
      </trkpt>
      <trkpt lat="46.69019" lon="5.63801">
        <ele>429</ele>
        <time>2020-06-26T06:30:37Z</time>
      </trkpt>
      <trkpt lat="46.69005" lon="5.63819">
        <ele>417</ele>
        <time>2020-06-26T06:31:02Z</time>
      </trkpt>
      <trkpt lat="46.6902" lon="5.63848">
        <ele>400</ele>
        <time>2020-06-26T06:31:35Z</time>
      </trkpt>
      <trkpt lat="46.69041" lon="5.63849">
        <ele>396</ele>
        <time>2020-06-26T06:32:03Z</time>
      </trkpt>
      <trkpt lat="46.69036" lon="5.63862">
        <ele>394</ele>
        <time>2020-06-26T06:32:17Z</time>
      </trkpt>
      <trkpt lat="46.69072" lon="5.63864">
        <ele>388</ele>
        <time>2020-06-26T06:33:05Z</time>
      </trkpt>
      <trkpt lat="46.69084" lon="5.63874">
        <ele>384</ele>
        <time>2020-06-26T06:33:23Z</time>
      </trkpt>
      <trkpt lat="46.69081" lon="5.63891">
        <ele>382</ele>
        <time>2020-06-26T06:33:39Z</time>
      </trkpt>
      <trkpt lat="46.69039" lon="5.63904">
        <ele>385</ele>
        <time>2020-06-26T06:34:37Z</time>
      </trkpt>
      <trkpt lat="46.69026" lon="5.63919">
        <ele>385</ele>
        <time>2020-06-26T06:34:59Z</time>
      </trkpt>
      <trkpt lat="46.69019" lon="5.63943">
        <ele>397</ele>
        <time>2020-06-26T06:35:23Z</time>
      </trkpt>
      <trkpt lat="46.68971" lon="5.63942">
        <ele>410</ele>
        <time>2020-06-26T06:36:27Z</time>
      </trkpt>
      <trkpt lat="46.68949" lon="5.63914">
        <ele>401</ele>
        <time>2020-06-26T06:37:06Z</time>
      </trkpt>
      <trkpt lat="46.68951" lon="5.63959">
        <ele>426</ele>
        <time>2020-06-26T06:37:47Z</time>
      </trkpt>
      <trkpt lat="46.68972" lon="5.63997">
        <ele>441</ele>
        <time>2020-06-26T06:38:32Z</time>
      </trkpt>
      <trkpt lat="46.6893" lon="5.63984">
        <ele>448</ele>
        <time>2020-06-26T06:39:29Z</time>
      </trkpt>
      <trkpt lat="46.68955" lon="5.64027">
        <ele>468</ele>
        <time>2020-06-26T06:40:21Z</time>
      </trkpt>
      <trkpt lat="46.68891" lon="5.64013">
        <ele>479</ele>
        <time>2020-06-26T06:41:47Z</time>
      </trkpt>
      <trkpt lat="46.68898" lon="5.64034">
        <ele>486</ele>
        <time>2020-06-26T06:42:08Z</time>
      </trkpt>
      <trkpt lat="46.68881" lon="5.64023">
        <ele>486</ele>
        <time>2020-06-26T06:42:33Z</time>
      </trkpt>
      <trkpt lat="46.68868" lon="5.64034">
        <ele>493</ele>
        <time>2020-06-26T06:42:53Z</time>
      </trkpt>
      <trkpt lat="46.68857" lon="5.64062">
        <ele>502</ele>
        <time>2020-06-26T06:43:23Z</time>
      </trkpt>
      <trkpt lat="46.68847" lon="5.64055">
        <ele>501</ele>
        <time>2020-06-26T06:43:38Z</time>
      </trkpt>
      <trkpt lat="46.68849" lon="5.6403">
        <ele>496</ele>
        <time>2020-06-26T06:44:01Z</time>
      </trkpt>
      <trkpt lat="46.68839" lon="5.64046">
        <ele>501</ele>
        <time>2020-06-26T06:44:20Z</time>
      </trkpt>
      <trkpt lat="46.6884" lon="5.64017">
        <ele>497</ele>
        <time>2020-06-26T06:44:47Z</time>
      </trkpt>
      <trkpt lat="46.68829" lon="5.63999">
        <ele>497</ele>
        <time>2020-06-26T06:45:09Z</time>
      </trkpt>
      <trkpt lat="46.68829" lon="5.63982">
        <ele>496</ele>
        <time>2020-06-26T06:45:25Z</time>
      </trkpt>
      <trkpt lat="46.68795" lon="5.63986">
        <ele>498</ele>
        <time>2020-06-26T06:46:10Z</time>
      </trkpt>
      <trkpt lat="46.68791" lon="5.63996">
        <ele>499</ele>
        <time>2020-06-26T06:46:21Z</time>
      </trkpt>
      <trkpt lat="46.68811" lon="5.6409">
        <ele>504</ele>
        <time>2020-06-26T06:47:51Z</time>
      </trkpt>
      <trkpt lat="46.68829" lon="5.64225">
        <ele>505</ele>
        <time>2020-06-26T06:49:57Z</time>
      </trkpt>
      <trkpt lat="46.68877" lon="5.64268">
        <ele>511</ele>
        <time>2020-06-26T06:51:12Z</time>
      </trkpt>
      <trkpt lat="46.68896" lon="5.64382">
        <ele>511</ele>
        <time>2020-06-26T06:52:59Z</time>
      </trkpt>
      <trkpt lat="46.68917" lon="5.64405">
        <ele>512</ele>
        <time>2020-06-26T06:53:34Z</time>
      </trkpt>
      <trkpt lat="46.68966" lon="5.64422">
        <ele>516</ele>
        <time>2020-06-26T06:54:42Z</time>
      </trkpt>
      <trkpt lat="46.68988" lon="5.64435">
        <ele>517</ele>
        <time>2020-06-26T06:55:13Z</time>
      </trkpt>
      <trkpt lat="46.68999" lon="5.64457">
        <ele>517</ele>
        <time>2020-06-26T06:55:38Z</time>
      </trkpt>
      <trkpt lat="46.69022" lon="5.64519">
        <ele>517</ele>
        <time>2020-06-26T06:56:43Z</time>
      </trkpt>
      <trkpt lat="46.69033" lon="5.6455">
        <ele>517</ele>
        <time>2020-06-26T06:57:15Z</time>
      </trkpt>
      <trkpt lat="46.6907" lon="5.64583">
        <ele>518</ele>
        <time>2020-06-26T06:58:13Z</time>
      </trkpt>
      <trkpt lat="46.69094" lon="5.64643">
        <ele>516</ele>
        <time>2020-06-26T06:59:16Z</time>
      </trkpt>
      <trkpt lat="46.69097" lon="5.6471">
        <ele>516</ele>
        <time>2020-06-26T07:00:18Z</time>
      </trkpt>
      <trkpt lat="46.69148" lon="5.64766">
        <ele>516</ele>
        <time>2020-06-26T07:01:43Z</time>
      </trkpt>
      <trkpt lat="46.69169" lon="5.64795">
        <ele>516</ele>
        <time>2020-06-26T07:02:21Z</time>
      </trkpt>
      <trkpt lat="46.69188" lon="5.64812">
        <ele>516</ele>
        <time>2020-06-26T07:02:51Z</time>
      </trkpt>
      <trkpt lat="46.69249" lon="5.64875">
        <ele>515</ele>
        <time>2020-06-26T07:04:31Z</time>
      </trkpt>
      <trkpt lat="46.69294" lon="5.64879">
        <ele>513</ele>
        <time>2020-06-26T07:05:31Z</time>
      </trkpt>
      <trkpt lat="46.69316" lon="5.64912">
        <ele>512</ele>
        <time>2020-06-26T07:06:13Z</time>
      </trkpt>
      <trkpt lat="46.69368" lon="5.64961">
        <ele>512</ele>
        <time>2020-06-26T07:07:36Z</time>
      </trkpt>
      <trkpt lat="46.69458" lon="5.65038">
        <ele>515</ele>
        <time>2020-06-26T07:09:55Z</time>
      </trkpt>
      <trkpt lat="46.69469" lon="5.65087">
        <ele>515</ele>
        <time>2020-06-26T07:10:42Z</time>
      </trkpt>
      <trkpt lat="46.69489" lon="5.6513">
        <ele>513</ele>
        <time>2020-06-26T07:11:30Z</time>
      </trkpt>
      <trkpt lat="46.69526" lon="5.65182">
        <ele>510</ele>
        <time>2020-06-26T07:12:38Z</time>
      </trkpt>
      <trkpt lat="46.69537" lon="5.65221">
        <ele>510</ele>
        <time>2020-06-26T07:13:17Z</time>
      </trkpt>
      <trkpt lat="46.6955" lon="5.65263">
        <ele>508</ele>
        <time>2020-06-26T07:13:59Z</time>
      </trkpt>
      <trkpt lat="46.6956" lon="5.65311">
        <ele>506</ele>
        <time>2020-06-26T07:14:45Z</time>
      </trkpt>
      <trkpt lat="46.69562" lon="5.65323">
        <ele>505</ele>
        <time>2020-06-26T07:14:56Z</time>
      </trkpt>
      <trkpt lat="46.69566" lon="5.65341">
        <ele>504</ele>
        <time>2020-06-26T07:15:14Z</time>
      </trkpt>
      <trkpt lat="46.69551" lon="5.65435">
        <ele>502</ele>
        <time>2020-06-26T07:16:42Z</time>
      </trkpt>
      <trkpt lat="46.69568" lon="5.65517">
        <ele>499</ele>
        <time>2020-06-26T07:18:00Z</time>
      </trkpt>
      <trkpt lat="46.69548" lon="5.65603">
        <ele>499</ele>
        <time>2020-06-26T07:19:24Z</time>
      </trkpt>
      <trkpt lat="46.69548" lon="5.65696">
        <ele>495</ele>
        <time>2020-06-26T07:20:49Z</time>
      </trkpt>
      <trkpt lat="46.69541" lon="5.65797">
        <ele>498</ele>
        <time>2020-06-26T07:22:22Z</time>
      </trkpt>
      <trkpt lat="46.69539" lon="5.65881">
        <ele>503</ele>
        <time>2020-06-26T07:23:38Z</time>
      </trkpt>
      <trkpt lat="46.69558" lon="5.65953">
        <ele>504</ele>
        <time>2020-06-26T07:24:49Z</time>
      </trkpt>
      <trkpt lat="46.69601" lon="5.66003">
        <ele>508</ele>
        <time>2020-06-26T07:26:02Z</time>
      </trkpt>
      <trkpt lat="46.69719" lon="5.66006">
        <ele>506</ele>
        <time>2020-06-26T07:28:40Z</time>
      </trkpt>
      <trkpt lat="46.69758" lon="5.66063">
        <ele>510</ele>
        <time>2020-06-26T07:29:54Z</time>
      </trkpt>
      <trkpt lat="46.69805" lon="5.66074">
        <ele>509</ele>
        <time>2020-06-26T07:30:57Z</time>
      </trkpt>
      <trkpt lat="46.69862" lon="5.66035">
        <ele>495</ele>
        <time>2020-06-26T07:32:21Z</time>
      </trkpt>
      <trkpt lat="46.69924" lon="5.66016">
        <ele>503</ele>
        <time>2020-06-26T07:33:46Z</time>
      </trkpt>
      <trkpt lat="46.69938" lon="5.66005">
        <ele>504</ele>
        <time>2020-06-26T07:34:07Z</time>
      </trkpt>
      <trkpt lat="46.69977" lon="5.65899">
        <ele>492</ele>
        <time>2020-06-26T07:35:57Z</time>
      </trkpt>
      <trkpt lat="46.69988" lon="5.65851">
        <ele>481</ele>
        <time>2020-06-26T07:36:43Z</time>
      </trkpt>
      <trkpt lat="46.70029" lon="5.65811">
        <ele>484</ele>
        <time>2020-06-26T07:37:49Z</time>
      </trkpt>
      <trkpt lat="46.70086" lon="5.65764">
        <ele>499</ele>
        <time>2020-06-26T07:39:17Z</time>
      </trkpt>
      <trkpt lat="46.70129" lon="5.65713">
        <ele>490</ele>
        <time>2020-06-26T07:40:31Z</time>
      </trkpt>
      <trkpt lat="46.70179" lon="5.65675">
        <ele>495</ele>
        <time>2020-06-26T07:41:46Z</time>
      </trkpt>
      <trkpt lat="46.702" lon="5.65619">
        <ele>486</ele>
        <time>2020-06-26T07:42:44Z</time>
      </trkpt>
      <trkpt lat="46.70226" lon="5.65559">
        <ele>486</ele>
        <time>2020-06-26T07:43:49Z</time>
      </trkpt>
      <trkpt lat="46.70251" lon="5.65503">
        <ele>490</ele>
        <time>2020-06-26T07:44:50Z</time>
      </trkpt>
      <trkpt lat="46.70296" lon="5.6547">
        <ele>495</ele>
        <time>2020-06-26T07:45:58Z</time>
      </trkpt>
      <trkpt lat="46.70308" lon="5.65437">
        <ele>491</ele>
        <time>2020-06-26T07:46:32Z</time>
      </trkpt>
      <trkpt lat="46.70346" lon="5.65388">
        <ele>492</ele>
        <time>2020-06-26T07:47:39Z</time>
      </trkpt>
      <trkpt lat="46.70401" lon="5.653">
        <ele>483</ele>
        <time>2020-06-26T07:49:28Z</time>
      </trkpt>
      <trkpt lat="46.70422" lon="5.65256">
        <ele>472</ele>
        <time>2020-06-26T07:50:17Z</time>
      </trkpt>
      <trkpt lat="46.7043" lon="5.65237">
        <ele>464</ele>
        <time>2020-06-26T07:50:38Z</time>
      </trkpt>
      <trkpt lat="46.70432" lon="5.65281">
        <ele>483</ele>
        <time>2020-06-26T07:51:18Z</time>
      </trkpt>
      <trkpt lat="46.70454" lon="5.65322">
        <ele>499</ele>
        <time>2020-06-26T07:52:06Z</time>
      </trkpt>
      <trkpt lat="46.70449" lon="5.65371">
        <ele>506</ele>
        <time>2020-06-26T07:52:51Z</time>
      </trkpt>
      <trkpt lat="46.70439" lon="5.6545">
        <ele>512</ele>
        <time>2020-06-26T07:54:05Z</time>
      </trkpt>
      <trkpt lat="46.70456" lon="5.65523">
        <ele>511</ele>
        <time>2020-06-26T07:55:15Z</time>
      </trkpt>
      <trkpt lat="46.70456" lon="5.65545">
        <ele>511</ele>
        <time>2020-06-26T07:55:35Z</time>
      </trkpt>
      <trkpt lat="46.70485" lon="5.65572">
        <ele>510</ele>
        <time>2020-06-26T07:56:21Z</time>
      </trkpt>
      <trkpt lat="46.70499" lon="5.65616">
        <ele>509</ele>
        <time>2020-06-26T07:57:06Z</time>
      </trkpt>
      <trkpt lat="46.70492" lon="5.65677">
        <ele>509</ele>
        <time>2020-06-26T07:58:02Z</time>
      </trkpt>
      <trkpt lat="46.70518" lon="5.65708">
        <ele>506</ele>
        <time>2020-06-26T07:58:47Z</time>
      </trkpt>
      <trkpt lat="46.70546" lon="5.65711">
        <ele>502</ele>
        <time>2020-06-26T07:59:25Z</time>
      </trkpt>
      <trkpt lat="46.70586" lon="5.65744">
        <ele>503</ele>
        <time>2020-06-26T08:00:26Z</time>
      </trkpt>
      <trkpt lat="46.70614" lon="5.65792">
        <ele>498</ele>
        <time>2020-06-26T08:01:24Z</time>
      </trkpt>
      <trkpt lat="46.70636" lon="5.65878">
        <ele>499</ele>
        <time>2020-06-26T08:02:48Z</time>
      </trkpt>
      <trkpt lat="46.70648" lon="5.65916">
        <ele>499</ele>
        <time>2020-06-26T08:03:26Z</time>
      </trkpt>
      <trkpt lat="46.70638" lon="5.65936">
        <ele>500</ele>
        <time>2020-06-26T08:03:48Z</time>
      </trkpt>
      <trkpt lat="46.70656" lon="5.65946">
        <ele>499</ele>
        <time>2020-06-26T08:04:14Z</time>
      </trkpt>
      <trkpt lat="46.7069" lon="5.65972">
        <ele>500</ele>
        <time>2020-06-26T08:05:05Z</time>
      </trkpt>
      <trkpt lat="46.70711" lon="5.65959">
        <ele>499</ele>
        <time>2020-06-26T08:05:36Z</time>
      </trkpt>
      <trkpt lat="46.70717" lon="5.65971">
        <ele>500</ele>
        <time>2020-06-26T08:05:49Z</time>
      </trkpt>
      <trkpt lat="46.70799" lon="5.65927">
        <ele>495</ele>
        <time>2020-06-26T08:07:46Z</time>
      </trkpt>
      <trkpt lat="46.70858" lon="5.6589">
        <ele>490</ele>
        <time>2020-06-26T08:09:12Z</time>
      </trkpt>
      <trkpt lat="46.70893" lon="5.65844">
        <ele>489</ele>
        <time>2020-06-26T08:10:15Z</time>
      </trkpt>
      <trkpt lat="46.70929" lon="5.65786">
        <ele>489</ele>
        <time>2020-06-26T08:11:26Z</time>
      </trkpt>
      <trkpt lat="46.70963" lon="5.65692">
        <ele>484</ele>
        <time>2020-06-26T08:13:03Z</time>
      </trkpt>
      <trkpt lat="46.70974" lon="5.65644">
        <ele>484</ele>
        <time>2020-06-26T08:13:50Z</time>
      </trkpt>
      <trkpt lat="46.70976" lon="5.65594">
        <ele>482</ele>
        <time>2020-06-26T08:14:36Z</time>
      </trkpt>
      <trkpt lat="46.70984" lon="5.65491">
        <ele>485</ele>
        <time>2020-06-26T08:16:10Z</time>
      </trkpt>
      <trkpt lat="46.70995" lon="5.65388">
        <ele>492</ele>
        <time>2020-06-26T08:17:46Z</time>
      </trkpt>
      <trkpt lat="46.71013" lon="5.65287">
        <ele>496</ele>
        <time>2020-06-26T08:19:21Z</time>
      </trkpt>
      <trkpt lat="46.71031" lon="5.65181">
        <ele>492</ele>
        <time>2020-06-26T08:21:01Z</time>
      </trkpt>
      <trkpt lat="46.71047" lon="5.65126">
        <ele>486</ele>
        <time>2020-06-26T08:21:56Z</time>
      </trkpt>
      <trkpt lat="46.71068" lon="5.65086">
        <ele>485</ele>
        <time>2020-06-26T08:22:42Z</time>
      </trkpt>
      <trkpt lat="46.71121" lon="5.6501">
        <ele>480</ele>
        <time>2020-06-26T08:24:21Z</time>
      </trkpt>
      <trkpt lat="46.71184" lon="5.64939">
        <ele>484</ele>
        <time>2020-06-26T08:26:07Z</time>
      </trkpt>
      <trkpt lat="46.71237" lon="5.64856">
        <ele>482</ele>
        <time>2020-06-26T08:27:51Z</time>
      </trkpt>
      <trkpt lat="46.71289" lon="5.64773">
        <ele>482</ele>
        <time>2020-06-26T08:29:34Z</time>
      </trkpt>
      <trkpt lat="46.71321" lon="5.64698">
        <ele>480</ele>
        <time>2020-06-26T08:30:55Z</time>
      </trkpt>
      <trkpt lat="46.71363" lon="5.646">
        <ele>482</ele>
        <time>2020-06-26T08:32:41Z</time>
      </trkpt>
      <trkpt lat="46.71371" lon="5.64557">
        <ele>484</ele>
        <time>2020-06-26T08:33:21Z</time>
      </trkpt>
      <trkpt lat="46.71374" lon="5.64492">
        <ele>489</ele>
        <time>2020-06-26T08:34:21Z</time>
      </trkpt>
      <trkpt lat="46.71363" lon="5.64482">
        <ele>488</ele>
        <time>2020-06-26T08:34:38Z</time>
      </trkpt>
      <trkpt lat="46.71353" lon="5.64499">
        <ele>485</ele>
        <time>2020-06-26T08:34:59Z</time>
      </trkpt>
      <trkpt lat="46.71335" lon="5.64505">
        <ele>482</ele>
        <time>2020-06-26T08:35:23Z</time>
      </trkpt>
      <trkpt lat="46.71313" lon="5.64503">
        <ele>471</ele>
        <time>2020-06-26T08:35:53Z</time>
      </trkpt>
      <trkpt lat="46.71294" lon="5.64486">
        <ele>460</ele>
        <time>2020-06-26T08:36:23Z</time>
      </trkpt>
      <trkpt lat="46.7128" lon="5.64461">
        <ele>445</ele>
        <time>2020-06-26T08:36:52Z</time>
      </trkpt>
      <trkpt lat="46.7127" lon="5.64461">
        <ele>437</ele>
        <time>2020-06-26T08:37:05Z</time>
      </trkpt>
      <trkpt lat="46.71262" lon="5.64477">
        <ele>437</ele>
        <time>2020-06-26T08:37:24Z</time>
      </trkpt>
      <trkpt lat="46.71243" lon="5.64471">
        <ele>418</ele>
        <time>2020-06-26T08:37:50Z</time>
      </trkpt>
      <trkpt lat="46.71262" lon="5.64481">
        <ele>438</ele>
        <time>2020-06-26T08:38:17Z</time>
      </trkpt>
      <trkpt lat="46.71273" lon="5.64456">
        <ele>438</ele>
        <time>2020-06-26T08:38:44Z</time>
      </trkpt>
      <trkpt lat="46.71286" lon="5.64462">
        <ele>450</ele>
        <time>2020-06-26T08:39:02Z</time>
      </trkpt>
      <trkpt lat="46.71302" lon="5.64489">
        <ele>465</ele>
        <time>2020-06-26T08:39:35Z</time>
      </trkpt>
      <trkpt lat="46.7132" lon="5.64505">
        <ele>475</ele>
        <time>2020-06-26T08:40:03Z</time>
      </trkpt>
      <trkpt lat="46.71346" lon="5.64502">
        <ele>484</ele>
        <time>2020-06-26T08:40:37Z</time>
      </trkpt>
      <trkpt lat="46.71366" lon="5.64487">
        <ele>488</ele>
        <time>2020-06-26T08:41:07Z</time>
      </trkpt>
      <trkpt lat="46.71357" lon="5.64445">
        <ele>491</ele>
        <time>2020-06-26T08:41:48Z</time>
      </trkpt>
      <trkpt lat="46.71375" lon="5.64481">
        <ele>490</ele>
        <time>2020-06-26T08:42:29Z</time>
      </trkpt>
      <trkpt lat="46.71373" lon="5.64544">
        <ele>485</ele>
        <time>2020-06-26T08:43:26Z</time>
      </trkpt>
      <trkpt lat="46.71387" lon="5.64585">
        <ele>486</ele>
        <time>2020-06-26T08:44:08Z</time>
      </trkpt>
      <trkpt lat="46.71462" lon="5.64627">
        <ele>492</ele>
        <time>2020-06-26T08:45:55Z</time>
      </trkpt>
      <trkpt lat="46.71481" lon="5.64647">
        <ele>492</ele>
        <time>2020-06-26T08:46:27Z</time>
      </trkpt>
      <trkpt lat="46.71499" lon="5.6467">
        <ele>492</ele>
        <time>2020-06-26T08:46:59Z</time>
      </trkpt>
      <trkpt lat="46.71518" lon="5.64686">
        <ele>493</ele>
        <time>2020-06-26T08:47:28Z</time>
      </trkpt>
      <trkpt lat="46.71576" lon="5.64703">
        <ele>493</ele>
        <time>2020-06-26T08:48:47Z</time>
      </trkpt>
      <trkpt lat="46.7161" lon="5.64715">
        <ele>492</ele>
        <time>2020-06-26T08:49:33Z</time>
      </trkpt>
      <trkpt lat="46.71624" lon="5.64726">
        <ele>492</ele>
        <time>2020-06-26T08:49:55Z</time>
      </trkpt>
      <trkpt lat="46.71657" lon="5.64755">
        <ele>491</ele>
        <time>2020-06-26T08:50:46Z</time>
      </trkpt>
      <trkpt lat="46.717" lon="5.64789">
        <ele>492</ele>
        <time>2020-06-26T08:51:51Z</time>
      </trkpt>
      <trkpt lat="46.71714" lon="5.64809">
        <ele>492</ele>
        <time>2020-06-26T08:52:18Z</time>
      </trkpt>
      <trkpt lat="46.71716" lon="5.64829">
        <ele>493</ele>
        <time>2020-06-26T08:52:36Z</time>
      </trkpt>
      <trkpt lat="46.71702" lon="5.64888">
        <ele>493</ele>
        <time>2020-06-26T08:53:33Z</time>
      </trkpt>
      <trkpt lat="46.71702" lon="5.64928">
        <ele>494</ele>
        <time>2020-06-26T08:54:10Z</time>
      </trkpt>
      <trkpt lat="46.71716" lon="5.64996">
        <ele>493</ele>
        <time>2020-06-26T08:55:15Z</time>
      </trkpt>
      <trkpt lat="46.71731" lon="5.65031">
        <ele>494</ele>
        <time>2020-06-26T08:55:52Z</time>
      </trkpt>
      <trkpt lat="46.71769" lon="5.65087">
        <ele>494</ele>
        <time>2020-06-26T08:57:05Z</time>
      </trkpt>
      <trkpt lat="46.71776" lon="5.65129">
        <ele>495</ele>
        <time>2020-06-26T08:57:44Z</time>
      </trkpt>
      <trkpt lat="46.71776" lon="5.65184">
        <ele>495</ele>
        <time>2020-06-26T08:58:34Z</time>
      </trkpt>
      <trkpt lat="46.71772" lon="5.6523">
        <ele>495</ele>
        <time>2020-06-26T08:59:17Z</time>
      </trkpt>
      <trkpt lat="46.71777" lon="5.6527">
        <ele>496</ele>
        <time>2020-06-26T08:59:54Z</time>
      </trkpt>
      <trkpt lat="46.71784" lon="5.65293">
        <ele>496</ele>
        <time>2020-06-26T09:00:17Z</time>
      </trkpt>
      <trkpt lat="46.71794" lon="5.65306">
        <ele>497</ele>
        <time>2020-06-26T09:00:35Z</time>
      </trkpt>
      <trkpt lat="46.71851" lon="5.65334">
        <ele>497</ele>
        <time>2020-06-26T09:01:55Z</time>
      </trkpt>
      <trkpt lat="46.71867" lon="5.65346">
        <ele>497</ele>
        <time>2020-06-26T09:02:19Z</time>
      </trkpt>
      <trkpt lat="46.719" lon="5.65399">
        <ele>497</ele>
        <time>2020-06-26T09:03:25Z</time>
      </trkpt>
      <trkpt lat="46.71975" lon="5.65507">
        <ele>496</ele>
        <time>2020-06-26T09:05:45Z</time>
      </trkpt>
      <trkpt lat="46.72001" lon="5.65447">
        <ele>497</ele>
        <time>2020-06-26T09:06:50Z</time>
      </trkpt>
      <trkpt lat="46.72053" lon="5.6542">
        <ele>496</ele>
        <time>2020-06-26T09:08:04Z</time>
      </trkpt>
      <trkpt lat="46.72079" lon="5.6543">
        <ele>495</ele>
        <time>2020-06-26T09:08:40Z</time>
      </trkpt>
      <trkpt lat="46.72088" lon="5.6545">
        <ele>495</ele>
        <time>2020-06-26T09:09:02Z</time>
      </trkpt>
      <trkpt lat="46.72101" lon="5.65517">
        <ele>496</ele>
        <time>2020-06-26T09:10:05Z</time>
      </trkpt>
      <trkpt lat="46.72111" lon="5.65594">
        <ele>498</ele>
        <time>2020-06-26T09:11:17Z</time>
      </trkpt>
      <trkpt lat="46.72114" lon="5.65662">
        <ele>499</ele>
        <time>2020-06-26T09:12:19Z</time>
      </trkpt>
      <trkpt lat="46.72135" lon="5.65752">
        <ele>500</ele>
        <time>2020-06-26T09:13:46Z</time>
      </trkpt>
      <trkpt lat="46.72188" lon="5.65898">
        <ele>500</ele>
        <time>2020-06-26T09:16:18Z</time>
      </trkpt>
      <trkpt lat="46.72236" lon="5.6594">
        <ele>498</ele>
        <time>2020-06-26T09:17:32Z</time>
      </trkpt>
      <trkpt lat="46.72271" lon="5.65957">
        <ele>497</ele>
        <time>2020-06-26T09:18:21Z</time>
      </trkpt>
      <trkpt lat="46.7234" lon="5.65984">
        <ele>496</ele>
        <time>2020-06-26T09:19:57Z</time>
      </trkpt>
      <trkpt lat="46.72362" lon="5.66">
        <ele>495</ele>
        <time>2020-06-26T09:20:30Z</time>
      </trkpt>
      <trkpt lat="46.72423" lon="5.66063">
        <ele>495</ele>
        <time>2020-06-26T09:22:09Z</time>
      </trkpt>
      <trkpt lat="46.72474" lon="5.66117">
        <ele>497</ele>
        <time>2020-06-26T09:23:33Z</time>
      </trkpt>
      <trkpt lat="46.72533" lon="5.66159">
        <ele>499</ele>
        <time>2020-06-26T09:25:01Z</time>
      </trkpt>
      <trkpt lat="46.72573" lon="5.66235">
        <ele>500</ele>
        <time>2020-06-26T09:26:29Z</time>
      </trkpt>
      <trkpt lat="46.72569" lon="5.66302">
        <ele>499</ele>
        <time>2020-06-26T09:27:30Z</time>
      </trkpt>
      <trkpt lat="46.72594" lon="5.66374">
        <ele>496</ele>
        <time>2020-06-26T09:28:44Z</time>
      </trkpt>
      <trkpt lat="46.72623" lon="5.66398">
        <ele>497</ele>
        <time>2020-06-26T09:29:29Z</time>
      </trkpt>
      <trkpt lat="46.72664" lon="5.664">
        <ele>499</ele>
        <time>2020-06-26T09:30:23Z</time>
      </trkpt>
      <trkpt lat="46.72757" lon="5.66281">
        <ele>498</ele>
        <time>2020-06-26T09:33:08Z</time>
      </trkpt>
      <trkpt lat="46.72844" lon="5.66236">
        <ele>500</ele>
        <time>2020-06-26T09:35:12Z</time>
      </trkpt>
      <trkpt lat="46.72889" lon="5.662">
        <ele>497</ele>
        <time>2020-06-26T09:36:20Z</time>
      </trkpt>
      <trkpt lat="46.72918" lon="5.66209">
        <ele>496</ele>
        <time>2020-06-26T09:37:00Z</time>
      </trkpt>
      <trkpt lat="46.73016" lon="5.66316">
        <ele>499</ele>
        <time>2020-06-26T09:39:43Z</time>
      </trkpt>
      <trkpt lat="46.73066" lon="5.66325">
        <ele>501</ele>
        <time>2020-06-26T09:40:50Z</time>
      </trkpt>
      <trkpt lat="46.73104" lon="5.6633">
        <ele>502</ele>
        <time>2020-06-26T09:41:41Z</time>
      </trkpt>
      <trkpt lat="46.73121" lon="5.66304">
        <ele>502</ele>
        <time>2020-06-26T09:42:14Z</time>
      </trkpt>
      <trkpt lat="46.73168" lon="5.66341">
        <ele>503</ele>
        <time>2020-06-26T09:43:25Z</time>
      </trkpt>
      <trkpt lat="46.73189" lon="5.66398">
        <ele>504</ele>
        <time>2020-06-26T09:44:24Z</time>
      </trkpt>
      <trkpt lat="46.73207" lon="5.66463">
        <ele>506</ele>
        <time>2020-06-26T09:45:29Z</time>
      </trkpt>
      <trkpt lat="46.73235" lon="5.66497">
        <ele>508</ele>
        <time>2020-06-26T09:46:17Z</time>
      </trkpt>
      <trkpt lat="46.73246" lon="5.66501">
        <ele>509</ele>
        <time>2020-06-26T09:46:32Z</time>
      </trkpt>
      <trkpt lat="46.73274" lon="5.66492">
        <ele>509</ele>
        <time>2020-06-26T09:47:11Z</time>
      </trkpt>
      <trkpt lat="46.73374" lon="5.66474">
        <ele>509</ele>
        <time>2020-06-26T09:49:25Z</time>
      </trkpt>
      <trkpt lat="46.73406" lon="5.66492">
        <ele>509</ele>
        <time>2020-06-26T09:50:11Z</time>
      </trkpt>
      <trkpt lat="46.73541" lon="5.66566">
        <ele>504</ele>
        <time>2020-06-26T09:53:23Z</time>
      </trkpt>
      <trkpt lat="46.73539" lon="5.66648">
        <ele>504</ele>
        <time>2020-06-26T09:54:38Z</time>
      </trkpt>
      <trkpt lat="46.73693" lon="5.66676">
        <ele>505</ele>
        <time>2020-06-26T09:58:05Z</time>
      </trkpt>
      <trkpt lat="46.73772" lon="5.66689">
        <ele>503</ele>
        <time>2020-06-26T09:59:51Z</time>
      </trkpt>
      <trkpt lat="46.73851" lon="5.66719">
        <ele>504</ele>
        <time>2020-06-26T10:01:40Z</time>
      </trkpt>
      <trkpt lat="46.73888" lon="5.66781">
        <ele>504</ele>
        <time>2020-06-26T10:02:56Z</time>
      </trkpt>
      <trkpt lat="46.73916" lon="5.66864">
        <ele>505</ele>
        <time>2020-06-26T10:04:20Z</time>
      </trkpt>
      <trkpt lat="46.73986" lon="5.6695">
        <ele>505</ele>
        <time>2020-06-26T10:06:22Z</time>
      </trkpt>
      <trkpt lat="46.74057" lon="5.66986">
        <ele>509</ele>
        <time>2020-06-26T10:08:03Z</time>
      </trkpt>
      <trkpt lat="46.74214" lon="5.66967">
        <ele>510</ele>
        <time>2020-06-26T10:11:33Z</time>
      </trkpt>
      <trkpt lat="46.74247" lon="5.66984">
        <ele>510</ele>
        <time>2020-06-26T10:12:19Z</time>
      </trkpt>
      <trkpt lat="46.74259" lon="5.67019">
        <ele>511</ele>
        <time>2020-06-26T10:12:55Z</time>
      </trkpt>
      <trkpt lat="46.74248" lon="5.67072">
        <ele>513</ele>
        <time>2020-06-26T10:13:46Z</time>
      </trkpt>
      <trkpt lat="46.74248" lon="5.67126">
        <ele>516</ele>
        <time>2020-06-26T10:14:35Z</time>
      </trkpt>
      <trkpt lat="46.7431" lon="5.67206">
        <ele>517</ele>
        <time>2020-06-26T10:16:26Z</time>
      </trkpt>
      <trkpt lat="46.74315" lon="5.67248">
        <ele>517</ele>
        <time>2020-06-26T10:17:05Z</time>
      </trkpt>
      <trkpt lat="46.74336" lon="5.67291">
        <ele>517</ele>
        <time>2020-06-26T10:17:53Z</time>
      </trkpt>
      <trkpt lat="46.74365" lon="5.67331">
        <ele>515</ele>
        <time>2020-06-26T10:18:46Z</time>
      </trkpt>
      <trkpt lat="46.74376" lon="5.67334">
        <ele>514</ele>
        <time>2020-06-26T10:19:01Z</time>
      </trkpt>
      <trkpt lat="46.74384" lon="5.67333">
        <ele>514</ele>
        <time>2020-06-26T10:19:12Z</time>
      </trkpt>
      <trkpt lat="46.74396" lon="5.67316">
        <ele>512</ele>
        <time>2020-06-26T10:19:34Z</time>
      </trkpt>
      <trkpt lat="46.74435" lon="5.67239">
        <ele>502</ele>
        <time>2020-06-26T10:21:02Z</time>
      </trkpt>
      <trkpt lat="46.74446" lon="5.67209">
        <ele>498</ele>
        <time>2020-06-26T10:21:33Z</time>
      </trkpt>
      <trkpt lat="46.74433" lon="5.67147">
        <ele>502</ele>
        <time>2020-06-26T10:22:32Z</time>
      </trkpt>
      <trkpt lat="46.74454" lon="5.67213">
        <ele>496</ele>
        <time>2020-06-26T10:23:39Z</time>
      </trkpt>
      <trkpt lat="46.74423" lon="5.67282">
        <ele>507</ele>
        <time>2020-06-26T10:24:54Z</time>
      </trkpt>
      <trkpt lat="46.7439" lon="5.67331">
        <ele>513</ele>
        <time>2020-06-26T10:25:57Z</time>
      </trkpt>
      <trkpt lat="46.74382" lon="5.67343">
        <ele>514</ele>
        <time>2020-06-26T10:26:12Z</time>
      </trkpt>
      <trkpt lat="46.7437" lon="5.67339">
        <ele>515</ele>
        <time>2020-06-26T10:26:29Z</time>
      </trkpt>
      <trkpt lat="46.74304" lon="5.67447">
        <ele>519</ele>
        <time>2020-06-26T10:28:41Z</time>
      </trkpt>
      <trkpt lat="46.74217" lon="5.67576">
        <ele>518</ele>
        <time>2020-06-26T10:31:27Z</time>
      </trkpt>
      <trkpt lat="46.7419" lon="5.67646">
        <ele>520</ele>
        <time>2020-06-26T10:32:40Z</time>
      </trkpt>
      <trkpt lat="46.74194" lon="5.67686">
        <ele>520</ele>
        <time>2020-06-26T10:33:17Z</time>
      </trkpt>
      <trkpt lat="46.74261" lon="5.67796">
        <ele>523</ele>
        <time>2020-06-26T10:35:32Z</time>
      </trkpt>
      <trkpt lat="46.74275" lon="5.67871">
        <ele>523</ele>
        <time>2020-06-26T10:36:43Z</time>
      </trkpt>
      <trkpt lat="46.74293" lon="5.67934">
        <ele>522</ele>
        <time>2020-06-26T10:37:45Z</time>
      </trkpt>
      <trkpt lat="46.74318" lon="5.67978">
        <ele>521</ele>
        <time>2020-06-26T10:38:37Z</time>
      </trkpt>
      <trkpt lat="46.74424" lon="5.68072">
        <ele>525</ele>
        <time>2020-06-26T10:41:23Z</time>
      </trkpt>
      <trkpt lat="46.74509" lon="5.68136">
        <ele>518</ele>
        <time>2020-06-26T10:43:31Z</time>
      </trkpt>
      <trkpt lat="46.74538" lon="5.68097">
        <ele>501</ele>
        <time>2020-06-26T10:44:23Z</time>
      </trkpt>
      <trkpt lat="46.74512" lon="5.68142">
        <ele>517</ele>
        <time>2020-06-26T10:45:17Z</time>
      </trkpt>
      <trkpt lat="46.7453" lon="5.6819">
        <ele>513</ele>
        <time>2020-06-26T10:46:07Z</time>
      </trkpt>
      <trkpt lat="46.74469" lon="5.68232">
        <ele>524</ele>
        <time>2020-06-26T10:47:37Z</time>
      </trkpt>
      <trkpt lat="46.74427" lon="5.68244">
        <ele>522</ele>
        <time>2020-06-26T10:48:34Z</time>
      </trkpt>
      <trkpt lat="46.74426" lon="5.68369">
        <ele>525</ele>
        <time>2020-06-26T10:50:28Z</time>
      </trkpt>
      <trkpt lat="46.74381" lon="5.68319">
        <ele>523</ele>
        <time>2020-06-26T10:51:44Z</time>
      </trkpt>
      <trkpt lat="46.74314" lon="5.68281">
        <ele>521</ele>
        <time>2020-06-26T10:53:20Z</time>
      </trkpt>
      <trkpt lat="46.7423" lon="5.68324">
        <ele>522</ele>
        <time>2020-06-26T10:55:19Z</time>
      </trkpt>
      <trkpt lat="46.74113" lon="5.68334">
        <ele>522</ele>
        <time>2020-06-26T10:57:55Z</time>
      </trkpt>
      <trkpt lat="46.74054" lon="5.68314">
        <ele>522</ele>
        <time>2020-06-26T10:59:16Z</time>
      </trkpt>
      <trkpt lat="46.74006" lon="5.68257">
        <ele>522</ele>
        <time>2020-06-26T11:00:38Z</time>
      </trkpt>
      <trkpt lat="46.73942" lon="5.6824">
        <ele>523</ele>
        <time>2020-06-26T11:02:05Z</time>
      </trkpt>
      <trkpt lat="46.73922" lon="5.68209">
        <ele>522</ele>
        <time>2020-06-26T11:02:44Z</time>
      </trkpt>
      <trkpt lat="46.73896" lon="5.68156">
        <ele>521</ele>
        <time>2020-06-26T11:03:44Z</time>
      </trkpt>
      <trkpt lat="46.73872" lon="5.68149">
        <ele>521</ele>
        <time>2020-06-26T11:04:16Z</time>
      </trkpt>
      <trkpt lat="46.7385" lon="5.68104">
        <ele>521</ele>
        <time>2020-06-26T11:05:07Z</time>
      </trkpt>
      <trkpt lat="46.73847" lon="5.68039">
        <ele>521</ele>
        <time>2020-06-26T11:06:07Z</time>
      </trkpt>
      <trkpt lat="46.73853" lon="5.67972">
        <ele>521</ele>
        <time>2020-06-26T11:07:08Z</time>
      </trkpt>
      <trkpt lat="46.73892" lon="5.67801">
        <ele>522</ele>
        <time>2020-06-26T11:09:53Z</time>
      </trkpt>
      <trkpt lat="46.73916" lon="5.67719">
        <ele>524</ele>
        <time>2020-06-26T11:11:15Z</time>
      </trkpt>
      <trkpt lat="46.73932" lon="5.67609">
        <ele>523</ele>
        <time>2020-06-26T11:12:58Z</time>
      </trkpt>
      <trkpt lat="46.73958" lon="5.67522">
        <ele>517</ele>
        <time>2020-06-26T11:14:24Z</time>
      </trkpt>
      <trkpt lat="46.73979" lon="5.67486">
        <ele>514</ele>
        <time>2020-06-26T11:15:08Z</time>
      </trkpt>
      <trkpt lat="46.74026" lon="5.67434">
        <ele>512</ele>
        <time>2020-06-26T11:16:26Z</time>
      </trkpt>
      <trkpt lat="46.7411" lon="5.67428">
        <ele>515</ele>
        <time>2020-06-26T11:18:19Z</time>
      </trkpt>
      <trkpt lat="46.74156" lon="5.67378">
        <ele>516</ele>
        <time>2020-06-26T11:19:35Z</time>
      </trkpt>
      <trkpt lat="46.74205" lon="5.6734">
        <ele>517</ele>
        <time>2020-06-26T11:20:49Z</time>
      </trkpt>
      <trkpt lat="46.74254" lon="5.67355">
        <ele>518</ele>
        <time>2020-06-26T11:21:56Z</time>
      </trkpt>
      <trkpt lat="46.74284" lon="5.6735">
        <ele>518</ele>
        <time>2020-06-26T11:22:36Z</time>
      </trkpt>
      <trkpt lat="46.74323" lon="5.6734">
        <ele>518</ele>
        <time>2020-06-26T11:23:29Z</time>
      </trkpt>
      <trkpt lat="46.74342" lon="5.67325">
        <ele>517</ele>
        <time>2020-06-26T11:23:58Z</time>
      </trkpt>
      <trkpt lat="46.74346" lon="5.67314">
        <ele>516</ele>
        <time>2020-06-26T11:24:09Z</time>
      </trkpt>
      <trkpt lat="46.7431" lon="5.67232">
        <ele>517</ele>
        <time>2020-06-26T11:25:38Z</time>
      </trkpt>
      <trkpt lat="46.74307" lon="5.67203">
        <ele>517</ele>
        <time>2020-06-26T11:26:05Z</time>
      </trkpt>
      <trkpt lat="46.74245" lon="5.67132">
        <ele>516</ele>
        <time>2020-06-26T11:27:50Z</time>
      </trkpt>
      <trkpt lat="46.74256" lon="5.67023">
        <ele>511</ele>
        <time>2020-06-26T11:29:31Z</time>
      </trkpt>
      <trkpt lat="46.7425" lon="5.66992">
        <ele>510</ele>
        <time>2020-06-26T11:30:01Z</time>
      </trkpt>
      <trkpt lat="46.74199" lon="5.66973">
        <ele>510</ele>
        <time>2020-06-26T11:31:11Z</time>
      </trkpt>
      <trkpt lat="46.74054" lon="5.66994">
        <ele>509</ele>
        <time>2020-06-26T11:34:25Z</time>
      </trkpt>
      <trkpt lat="46.7397" lon="5.66945">
        <ele>506</ele>
        <time>2020-06-26T11:36:26Z</time>
      </trkpt>
      <trkpt lat="46.73922" lon="5.66878">
        <ele>505</ele>
        <time>2020-06-26T11:37:55Z</time>
      </trkpt>
      <trkpt lat="46.73887" lon="5.66785">
        <ele>504</ele>
        <time>2020-06-26T11:39:32Z</time>
      </trkpt>
      <trkpt lat="46.73846" lon="5.66721">
        <ele>504</ele>
        <time>2020-06-26T11:40:52Z</time>
      </trkpt>
      <trkpt lat="46.73767" lon="5.66693">
        <ele>503</ele>
        <time>2020-06-26T11:42:40Z</time>
      </trkpt>
      <trkpt lat="46.7366" lon="5.66677">
        <ele>506</ele>
        <time>2020-06-26T11:45:04Z</time>
      </trkpt>
      <trkpt lat="46.73535" lon="5.66653">
        <ele>504</ele>
        <time>2020-06-26T11:47:52Z</time>
      </trkpt>
      <trkpt lat="46.73546" lon="5.66562">
        <ele>505</ele>
        <time>2020-06-26T11:49:17Z</time>
      </trkpt>
      <trkpt lat="46.73448" lon="5.66539">
        <ele>507</ele>
        <time>2020-06-26T11:51:29Z</time>
      </trkpt>
      <trkpt lat="46.73383" lon="5.66473">
        <ele>509</ele>
        <time>2020-06-26T11:53:15Z</time>
      </trkpt>
      <trkpt lat="46.73266" lon="5.66499">
        <ele>509</ele>
        <time>2020-06-26T11:55:53Z</time>
      </trkpt>
      <trkpt lat="46.73214" lon="5.66478">
        <ele>507</ele>
        <time>2020-06-26T11:57:05Z</time>
      </trkpt>
      <trkpt lat="46.73193" lon="5.66391">
        <ele>504</ele>
        <time>2020-06-26T11:58:29Z</time>
      </trkpt>
      <trkpt lat="46.73174" lon="5.6634">
        <ele>503</ele>
        <time>2020-06-26T11:59:22Z</time>
      </trkpt>
      <trkpt lat="46.73127" lon="5.66294">
        <ele>502</ele>
        <time>2020-06-26T12:00:38Z</time>
      </trkpt>
      <trkpt lat="46.73099" lon="5.66331">
        <ele>502</ele>
        <time>2020-06-26T12:01:28Z</time>
      </trkpt>
      <trkpt lat="46.73029" lon="5.66329">
        <ele>500</ele>
        <time>2020-06-26T12:03:01Z</time>
      </trkpt>
      <trkpt lat="46.72917" lon="5.66199">
        <ele>496</ele>
        <time>2020-06-26T12:06:12Z</time>
      </trkpt>
      <trkpt lat="46.72889" lon="5.66193">
        <ele>497</ele>
        <time>2020-06-26T12:06:50Z</time>
      </trkpt>
      <trkpt lat="46.72851" lon="5.66231">
        <ele>499</ele>
        <time>2020-06-26T12:07:52Z</time>
      </trkpt>
      <trkpt lat="46.72785" lon="5.66262">
        <ele>498</ele>
        <time>2020-06-26T12:09:24Z</time>
      </trkpt>
      <trkpt lat="46.7266" lon="5.66414">
        <ele>499</ele>
        <time>2020-06-26T12:13:01Z</time>
      </trkpt>
      <trkpt lat="46.72601" lon="5.66374">
        <ele>497</ele>
        <time>2020-06-26T12:14:28Z</time>
      </trkpt>
      <trkpt lat="46.72569" lon="5.66317">
        <ele>498</ele>
        <time>2020-06-26T12:15:36Z</time>
      </trkpt>
      <trkpt lat="46.72569" lon="5.66246">
        <ele>501</ele>
        <time>2020-06-26T12:16:41Z</time>
      </trkpt>
      <trkpt lat="46.72555" lon="5.66193">
        <ele>500</ele>
        <time>2020-06-26T12:17:33Z</time>
      </trkpt>
      <trkpt lat="46.72524" lon="5.6615">
        <ele>499</ele>
        <time>2020-06-26T12:18:30Z</time>
      </trkpt>
      <trkpt lat="46.72508" lon="5.65853">
        <ele>496</ele>
        <time>2020-06-26T12:23:02Z</time>
      </trkpt>
      <trkpt lat="46.72515" lon="5.65781">
        <ele>497</ele>
        <time>2020-06-26T12:24:09Z</time>
      </trkpt>
      <trkpt lat="46.72499" lon="5.65639">
        <ele>498</ele>
        <time>2020-06-26T12:26:20Z</time>
      </trkpt>
      <trkpt lat="46.72444" lon="5.65557">
        <ele>498</ele>
        <time>2020-06-26T12:28:05Z</time>
      </trkpt>
      <trkpt lat="46.72399" lon="5.65411">
        <ele>496</ele>
        <time>2020-06-26T12:30:32Z</time>
      </trkpt>
      <trkpt lat="46.72315" lon="5.65313">
        <ele>495</ele>
        <time>2020-06-26T12:32:55Z</time>
      </trkpt>
      <trkpt lat="46.7229" lon="5.65165">
        <ele>496</ele>
        <time>2020-06-26T12:35:15Z</time>
      </trkpt>
      <trkpt lat="46.72244" lon="5.65037">
        <ele>496</ele>
        <time>2020-06-26T12:37:27Z</time>
      </trkpt>
      <trkpt lat="46.72241" lon="5.64876">
        <ele>495</ele>
        <time>2020-06-26T12:39:54Z</time>
      </trkpt>
      <trkpt lat="46.72202" lon="5.64829">
        <ele>494</ele>
        <time>2020-06-26T12:41:02Z</time>
      </trkpt>
      <trkpt lat="46.72169" lon="5.64622">
        <ele>488</ele>
        <time>2020-06-26T12:44:16Z</time>
      </trkpt>
      <trkpt lat="46.721" lon="5.64546">
        <ele>488</ele>
        <time>2020-06-26T12:46:12Z</time>
      </trkpt>
      <trkpt lat="46.71923" lon="5.64518">
        <ele>492</ele>
        <time>2020-06-26T12:50:09Z</time>
      </trkpt>
      <trkpt lat="46.71849" lon="5.64537">
        <ele>493</ele>
        <time>2020-06-26T12:51:49Z</time>
      </trkpt>
      <trkpt lat="46.71769" lon="5.64485">
        <ele>494</ele>
        <time>2020-06-26T12:53:46Z</time>
      </trkpt>
      <trkpt lat="46.71785" lon="5.64465">
        <ele>495</ele>
        <time>2020-06-26T12:54:14Z</time>
      </trkpt>
      <trkpt lat="46.71809" lon="5.64379">
        <ele>496</ele>
        <time>2020-06-26T12:55:39Z</time>
      </trkpt>
      <trkpt lat="46.71822" lon="5.64316">
        <ele>494</ele>
        <time>2020-06-26T12:56:40Z</time>
      </trkpt>
      <trkpt lat="46.71824" lon="5.6428">
        <ele>492</ele>
        <time>2020-06-26T12:57:13Z</time>
      </trkpt>
      <trkpt lat="46.71836" lon="5.64244">
        <ele>489</ele>
        <time>2020-06-26T12:57:49Z</time>
      </trkpt>
      <trkpt lat="46.71854" lon="5.64224">
        <ele>488</ele>
        <time>2020-06-26T12:58:19Z</time>
      </trkpt>
      <trkpt lat="46.71893" lon="5.64217">
        <ele>487</ele>
        <time>2020-06-26T12:59:12Z</time>
      </trkpt>
      <trkpt lat="46.71931" lon="5.64055">
        <ele>477</ele>
        <time>2020-06-26T13:01:48Z</time>
      </trkpt>
      <trkpt lat="46.71962" lon="5.63979">
        <ele>468</ele>
        <time>2020-06-26T13:03:09Z</time>
      </trkpt>
      <trkpt lat="46.72066" lon="5.6396">
        <ele>453</ele>
        <time>2020-06-26T13:05:29Z</time>
      </trkpt>
      <trkpt lat="46.71795" lon="5.63718">
        <ele>387</ele>
        <time>2020-06-26T13:12:33Z</time>
      </trkpt>
      <trkpt lat="46.71693" lon="5.6365">
        <ele>369</ele>
        <time>2020-06-26T13:15:03Z</time>
      </trkpt>
      <trkpt lat="46.71674" lon="5.63624">
        <ele>361</ele>
        <time>2020-06-26T13:15:38Z</time>
      </trkpt>
      <trkpt lat="46.7154" lon="5.63564">
        <ele>333</ele>
        <time>2020-06-26T13:18:45Z</time>
      </trkpt>
      <trkpt lat="46.71532" lon="5.63525">
        <ele>324</ele>
        <time>2020-06-26T13:19:22Z</time>
      </trkpt>
      <trkpt lat="46.71471" lon="5.63533">
        <ele>317</ele>
        <time>2020-06-26T13:20:44Z</time>
      </trkpt>
      <trkpt lat="46.71398" lon="5.63629">
        <ele>321</ele>
        <time>2020-06-26T13:22:55Z</time>
      </trkpt>
      <trkpt lat="46.71341" lon="5.63676">
        <ele>312</ele>
        <time>2020-06-26T13:24:22Z</time>
      </trkpt>
      <trkpt lat="46.71332" lon="5.637">
        <ele>313</ele>
        <time>2020-06-26T13:24:47Z</time>
      </trkpt>
      <trkpt lat="46.71336" lon="5.63748">
        <ele>324</ele>
        <time>2020-06-26T13:25:32Z</time>
      </trkpt>
      <trkpt lat="46.713" lon="5.6395">
        <ele>335</ele>
        <time>2020-06-26T13:28:43Z</time>
      </trkpt>
      <trkpt lat="46.71282" lon="5.64053">
        <ele>347</ele>
        <time>2020-06-26T13:30:20Z</time>
      </trkpt>
      <trkpt lat="46.7127" lon="5.64207">
        <ele>367</ele>
        <time>2020-06-26T13:32:42Z</time>
      </trkpt>
      <trkpt lat="46.71264" lon="5.64304">
        <ele>379</ele>
        <time>2020-06-26T13:34:11Z</time>
      </trkpt>
      <trkpt lat="46.71224" lon="5.6446">
        <ele>393</ele>
        <time>2020-06-26T13:36:43Z</time>
      </trkpt>
      <trkpt lat="46.71213" lon="5.64549">
        <ele>403</ele>
        <time>2020-06-26T13:38:06Z</time>
      </trkpt>
      <trkpt lat="46.71185" lon="5.6461">
        <ele>386</ele>
        <time>2020-06-26T13:39:13Z</time>
      </trkpt>
      <trkpt lat="46.71148" lon="5.64672">
        <ele>375</ele>
        <time>2020-06-26T13:40:28Z</time>
      </trkpt>
      <trkpt lat="46.71043" lon="5.64795">
        <ele>363</ele>
        <time>2020-06-26T13:43:28Z</time>
      </trkpt>
      <trkpt lat="46.71012" lon="5.64819">
        <ele>360</ele>
        <time>2020-06-26T13:44:15Z</time>
      </trkpt>
      <trkpt lat="46.70975" lon="5.64819">
        <ele>350</ele>
        <time>2020-06-26T13:45:04Z</time>
      </trkpt>
      <trkpt lat="46.71004" lon="5.64799">
        <ele>352</ele>
        <time>2020-06-26T13:45:47Z</time>
      </trkpt>
      <trkpt lat="46.71031" lon="5.64768">
        <ele>350</ele>
        <time>2020-06-26T13:46:33Z</time>
      </trkpt>
      <trkpt lat="46.71045" lon="5.64713">
        <ele>340</ele>
        <time>2020-06-26T13:47:26Z</time>
      </trkpt>
      <trkpt lat="46.71028" lon="5.64683">
        <ele>329</ele>
        <time>2020-06-26T13:48:02Z</time>
      </trkpt>
      <trkpt lat="46.7103" lon="5.64651">
        <ele>324</ele>
        <time>2020-06-26T13:48:32Z</time>
      </trkpt>
      <trkpt lat="46.71049" lon="5.64597">
        <ele>320</ele>
        <time>2020-06-26T13:49:27Z</time>
      </trkpt>
      <trkpt lat="46.71005" lon="5.64608">
        <ele>312</ele>
        <time>2020-06-26T13:50:27Z</time>
      </trkpt>
      <trkpt lat="46.70985" lon="5.64653">
        <ele>315</ele>
        <time>2020-06-26T13:51:16Z</time>
      </trkpt>
      <trkpt lat="46.70937" lon="5.64695">
        <ele>314</ele>
        <time>2020-06-26T13:52:30Z</time>
      </trkpt>
      <trkpt lat="46.70839" lon="5.64742">
        <ele>311</ele>
        <time>2020-06-26T13:54:48Z</time>
      </trkpt>
    </trkseg>
  </trk>
</gpx>